TimeEDT,TemperatureF,Dew PointF,Humidity,Sea Level PressureIn,VisibilityMPH,Wind Direction,Wind SpeedMPH,Gust SpeedMPH,PrecipitationIn,Events,Conditions,WindDirDegrees,DateUTC
12:15 AM,60.8,60.8,100,30.05,10.0,Calm,Calm,-,N/A,,Clear,0,2013-06-12 04:15:00
12:35 AM,60.8,60.8,100,30.06,9.0,Calm,Calm,-,N/A,,Clear,0,2013-06-12 04:35:00
12:55 AM,60.8,60.8,100,30.07,10.0,Calm,Calm,-,N/A,,Clear,0,2013-06-12 04:55:00
1:15 AM,60.8,60.8,100,30.06,8.0,Calm,Calm,-,N/A,,Clear,0,2013-06-12 05:15:00
1:35 AM,62.6,60.8,94,30.07,10.0,Calm,Calm,-,N/A,,Clear,0,2013-06-12 05:35:00
1:55 AM,60.8,60.8,100,30.06,10.0,Calm,Calm,-,N/A,,Clear,0,2013-06-12 05:55:00
2:15 AM,60.8,60.8,100,30.05,9.0,Calm,Calm,-,N/A,,Clear,0,2013-06-12 06:15:00
2:35 AM,60.8,60.8,100,30.05,9.0,Calm,Calm,-,N/A,,Clear,0,2013-06-12 06:35:00
2:55 AM,60.8,60.8,100,30.06,8.0,Calm,Calm,-,N/A,,Clear,0,2013-06-12 06:55:00
3:15 AM,60.8,60.8,100,30.05,8.0,Calm,Calm,-,N/A,,Clear,0,2013-06-12 07:15:00
3:35 AM,60.8,60.8,100,30.05,10.0,Calm,Calm,-,N/A,,Clear,0,2013-06-12 07:35:00
3:55 AM,60.8,60.8,100,30.05,10.0,Calm,Calm,-,N/A,,Clear,0,2013-06-12 07:55:00
4:15 AM,60.8,60.8,100,30.06,7.0,Calm,Calm,-,N/A,,Clear,0,2013-06-12 08:15:00
4:35 AM,60.8,60.8,100,30.06,8.0,Calm,Calm,-,N/A,,Clear,0,2013-06-12 08:35:00
4:55 AM,60.8,59.0,94,30.06,10.0,Calm,Calm,-,N/A,,Clear,0,2013-06-12 08:55:00
5:15 AM,60.8,60.8,100,30.06,7.0,Calm,Calm,-,N/A,,Scattered Clouds,0,2013-06-12 09:15:00
5:35 AM,60.8,60.8,100,30.07,10.0,Calm,Calm,-,N/A,,Mostly Cloudy,0,2013-06-12 09:35:00
5:55 AM,62.6,60.8,94,30.07,10.0,Calm,Calm,-,N/A,,Overcast,0,2013-06-12 09:55:00
6:15 AM,62.6,62.6,100,30.07,10.0,Calm,Calm,-,N/A,,Overcast,0,2013-06-12 10:15:00
6:35 AM,62.6,62.6,100,30.08,10.0,Calm,Calm,-,N/A,,Overcast,0,2013-06-12 10:35:00
6:55 AM,62.6,62.6,100,30.08,10.0,Calm,Calm,-,N/A,,Overcast,0,2013-06-12 10:55:00
7:15 AM,64.4,62.6,94,30.08,10.0,Calm,Calm,-,N/A,,Overcast,0,2013-06-12 11:15:00
7:35 AM,64.4,62.6,94,30.08,10.0,Calm,Calm,-,N/A,,Overcast,0,2013-06-12 11:35:00
7:55 AM,64.4,62.6,94,30.09,10.0,Calm,Calm,-,N/A,,Mostly Cloudy,0,2013-06-12 11:55:00
8:15 AM,66.2,62.6,88,30.09,10.0,Calm,Calm,-,N/A,,Mostly Cloudy,0,2013-06-12 12:15:00
8:35 AM,68.0,62.6,83,30.09,10.0,Calm,Calm,-,N/A,,Mostly Cloudy,0,2013-06-12 12:35:00
8:55 AM,71.6,64.4,78,30.08,10.0,SW,3.5,-,N/A,,Partly Cloudy,220,2013-06-12 12:55:00
9:15 AM,73.4,66.2,78,30.08,10.0,SW,4.6,-,N/A,,Clear,220,2013-06-12 13:15:00
9:35 AM,77.0,66.2,69,30.08,10.0,Variable,5.8,-,N/A,,Clear,0,2013-06-12 13:35:00
9:55 AM,77.0,66.2,69,30.08,10.0,West,6.9,-,N/A,,Clear,270,2013-06-12 13:55:00
10:15 AM,78.8,68.0,69,30.07,10.0,West,6.9,-,N/A,,Clear,280,2013-06-12 14:15:00
10:35 AM,80.6,69.8,70,30.07,10.0,West,8.1,-,N/A,,Clear,280,2013-06-12 14:35:00
10:55 AM,80.6,69.8,70,30.07,10.0,West,10.4,-,N/A,,Clear,270,2013-06-12 14:55:00
11:15 AM,82.4,69.8,66,30.07,10.0,WSW,9.2,-,N/A,,Scattered Clouds,250,2013-06-12 15:15:00
11:35 AM,78.8,69.8,74,30.07,10.0,WSW,8.1,-,N/A,,Mostly Cloudy,240,2013-06-12 15:35:00
11:55 AM,78.8,69.8,74,30.08,10.0,WSW,10.4,-,N/A,,Overcast,250,2013-06-12 15:55:00
12:15 PM,80.6,69.8,70,30.07,10.0,West,9.2,-,N/A,,Scattered Clouds,260,2013-06-12 16:15:00
12:35 PM,82.4,71.6,70,30.07,10.0,WSW,5.8,-,N/A,,Clear,240,2013-06-12 16:35:00
12:55 PM,84.2,71.6,66,30.06,10.0,WSW,6.9,-,N/A,,Partly Cloudy,250,2013-06-12 16:55:00
1:15 PM,82.4,71.6,70,30.06,10.0,WSW,8.1,-,N/A,,Scattered Clouds,250,2013-06-12 17:15:00
1:35 PM,84.2,69.8,62,30.07,10.0,WNW,9.2,-,N/A,,Mostly Cloudy,290,2013-06-12 17:35:00
1:55 PM,87.8,71.6,58,30.06,10.0,WNW,5.8,-,N/A,,Partly Cloudy,290,2013-06-12 17:55:00
2:15 PM,84.2,69.8,62,30.05,10.0,West,5.8,-,N/A,,Clear,280,2013-06-12 18:15:00
2:35 PM,87.8,71.6,58,30.05,10.0,Variable,3.5,-,N/A,,Clear,0,2013-06-12 18:35:00
2:55 PM,86.0,69.8,58,30.05,10.0,West,8.1,-,N/A,,Partly Cloudy,260,2013-06-12 18:55:00
4:15 PM,84.2,71.6,66,30.01,10.0,Calm,Calm,-,N/A,,Partly Cloudy,0,2013-06-12 20:15:00
4:35 PM,84.2,71.6,66,30.00,10.0,Calm,Calm,-,N/A,,Partly Cloudy,0,2013-06-12 20:35:00
4:55 PM,86.0,71.6,62,29.99,10.0,WNW,3.5,-,N/A,,Clear,300,2013-06-12 20:55:00
5:15 PM,87.8,71.6,58,29.99,10.0,SW,6.9,-,N/A,,Clear,230,2013-06-12 21:15:00
5:35 PM,87.8,69.8,55,29.99,10.0,West,5.8,-,N/A,,Clear,260,2013-06-12 21:35:00
5:55 PM,86.0,69.8,58,29.99,10.0,West,6.9,-,N/A,,Clear,270,2013-06-12 21:55:00
6:15 PM,84.2,71.6,66,29.98,10.0,West,9.2,-,N/A,,Scattered Clouds,270,2013-06-12 22:15:00
6:35 PM,84.2,71.6,66,29.98,10.0,WSW,6.9,-,N/A,,Partly Cloudy,250,2013-06-12 22:35:00
6:55 PM,84.2,71.6,66,29.97,10.0,West,8.1,-,N/A,,Clear,260,2013-06-12 22:55:00
7:15 PM,82.4,71.6,70,29.98,10.0,West,10.4,-,N/A,,Clear,260,2013-06-12 23:15:00
7:35 PM,82.4,71.6,70,29.98,10.0,WSW,5.8,-,N/A,,Clear,250,2013-06-12 23:35:00
7:55 PM,82.4,69.8,66,29.98,10.0,West,8.1,-,N/A,,Clear,270,2013-06-12 23:55:00
8:15 PM,80.6,69.8,70,29.98,10.0,West,5.8,-,N/A,,Clear,280,2013-06-13 00:15:00
8:35 PM,78.8,71.6,78,29.98,10.0,WNW,5.8,-,N/A,,Clear,300,2013-06-13 00:35:00
8:55 PM,75.2,69.8,83,29.98,10.0,NW,4.6,-,N/A,,Clear,310,2013-06-13 00:55:00
9:15 PM,73.4,69.8,88,29.98,10.0,NW,4.6,-,N/A,,Clear,310,2013-06-13 01:15:00
9:35 PM,71.6,69.8,94,29.98,10.0,NW,3.5,-,N/A,,Clear,320,2013-06-13 01:35:00
9:55 PM,71.6,69.8,94,29.98,10.0,Calm,Calm,-,N/A,,Clear,0,2013-06-13 01:55:00
10:15 PM,71.6,69.8,94,29.99,10.0,Calm,Calm,-,N/A,,Clear,0,2013-06-13 02:15:00
10:35 PM,71.6,69.8,94,29.98,10.0,Calm,Calm,-,N/A,,Clear,0,2013-06-13 02:35:00
10:55 PM,71.6,69.8,94,29.99,10.0,Calm,Calm,-,N/A,,Clear,0,2013-06-13 02:55:00
11:15 PM,69.8,68.0,94,29.99,10.0,Calm,Calm,-,N/A,,Clear,0,2013-06-13 03:15:00
11:35 PM,69.8,68.0,94,29.99,9.0,Calm,Calm,-,N/A,,Clear,0,2013-06-13 03:35:00
11:55 PM,68.0,68.0,100,29.98,8.0,Calm,Calm,-,N/A,,Clear,0,2013-06-13 03:55:00